[Date Prev][Date Next][Thread Prev][Thread Next] - [Date Index][Thread Index][Author Index]
2 Line ISS Keps 10-15
- Subject: [sarex] 2 Line ISS Keps 10-15
- From: "Dave Larsen PhD" <doc@xxxxxxxxxxx>
- Date: Fri, 15 Oct 2004 02:06:59 -0700
ISS
1 25544U 98067A 04289.28777872 .00017820 00000-0 15514-3 0 9190
2 25544 51.6354 72.9156 0009357 227.3380 209.0531 15.69071163337186
----
Via the sarex mailing list at AMSAT.ORG courtesy of AMSAT-NA.
To unsubscribe, send "unsubscribe sarex" to Majordomo@amsat.org
AMSAT Home